Location: Unnamed
(51.8936°N, 11.0665°E)
Time: 06:37:30
(UTC+02:00)

UKube-1 - Pass Details

Date: 28 September 2021
Orbit: 611 x 618 km, 98.4° (Epoch: 19 October)

Event Time Altitude Azimuth Distance (km) Brightness Sun altitude
Rises 22:31:58 0° 12° (NNE) 2,893 ? -31.0°
Reaches altitude 10° 22:34:10 10° 10° (N) 1,984 ? -31.2°
Enters shadow 22:35:29 19° 6° (N) 1,462 ? -31.4°
